sat.trackr.live / text

‹ back to catalog

GSAT0213 (GALILEO 17)

NORAD 41861 · 2016-069C

PAYLOAD ACTIVE UNKNOWN

§ Identity

Operator
Country
ESA
Launch date
2016-11-17
Launch site
FRGUI
Launch vehicle
Mass (kg)
RCS (m²)
14.17

Purposes: earth_obs, nav

External: N2YO · Heavens-Above · Gunter

§ Orbital elements

Epoch: 2026-05-23T07:54:32.351904Z

Period
844.70 min
Inclination
55.4841°
Eccentricity
0.0005510
Mean motion
1.70474331 rev/d
Perigee alt
23,205.8 km
Apogee alt
23,238.5 km
Semi-major
29,600.3 km
B*
0.0000e+0
RAAN
101.7765°
Arg perigee
308.1575°
Mean anomaly
51.7536°
Rev number
5,909

§ Raw data

GSAT0213 (GALILEO 17)1 41861U 16069C   26143.32954111  .00000019  00000+0  00000+0 0  99922 41861  55.4841 101.7765 0005510 308.1575  51.7536  1.70474331 59096

JSON: /api/v1/satellites/41861 · /tle

For live sub-satellite position, see the globe view (requires WebGL).

§ Visibility from observer

Set your observer location to see the next 7 days of passes ≥ 10°. The values pass through the URL so the page stays shareable.

No JS? Fill the form by hand. The geolocation button needs JavaScript.